| time (UTC) | temp C | wind direction | speed KPH | gust KPH | rain 1hr cm | rain 24hr cm | rain mn cm | humidity % | barometer mb |
| 20260506175854 | 13 | 12 | 12.9 | 14.5 | 0.00 | 0.23 | 0.23 | 78 | 1030.8 |
| 20260506175350 | 13 | 356 | 11.3 | 19.3 | 0.00 | 0.23 | 0.23 | 79 | 1030.7 |
| 20260506174847 | 13 | 66 | 4.8 | 12.9 | 0.00 | 0.23 | 0.23 | 79 | 1030.9 |
| 20260506174345 | 13 | 24 | 12.9 | 12.9 | 0.00 | 0.23 | 0.23 | 81 | 1031.0 |
| 20260506173842 | 13 | 17 | 4.8 | 9.7 | 0.00 | 0.23 | 0.23 | 82 | 1031.0 |
| 20260506173339 | 13 | 20 | 6.4 | 11.3 | 0.00 | 0.23 | 0.23 | 83 | 1031.3 |
| 20260506172836 | 12 | 37 | 4.8 | 8.0 | 0.00 | 0.23 | 0.23 | 83 | 1031.4 |
| 20260506172332 | 12 | 26 | 4.8 | 8.0 | 0.00 | 0.23 | 0.23 | 83 | 1031.6 |
| 20260506171830 | 12 | 4 | 4.8 | 14.5 | 0.00 | 0.23 | 0.23 | 83 | 1031.7 |
| 20260506171327 | 12 | 352 | 9.7 | 12.9 | 0.00 | 0.23 | 0.23 | 83 | 1031.5 |
| 20260506170825 | 12 | 44 | 8.0 | 14.5 | 0.00 | 0.23 | 0.23 | 84 | 1031.5 |
| 20260506170320 | 12 | 10 | 6.4 | 8.0 | 0.00 | 0.23 | 0.23 | 85 | 1031.6 |
| 20260506165820 | 12 | 22 | 8.0 | 12.9 | 0.00 | 0.23 | 0.23 | 84 | 1031.3 |
| 20260506165317 | 12 | 8 | 8.0 | 12.9 | 0.00 | 0.23 | 0.23 | 85 | 1031.5 |
| 20260506164813 | 12 | 333 | 9.7 | 14.5 | 0.00 | 0.23 | 0.23 | 85 | 1031.3 |
| 20260506164310 | 12 | 0 | 6.4 | 17.7 | 0.00 | 0.23 | 0.23 | 86 | 1031.4 |
| 20260506163807 | 12 | 32 | 8.0 | 8.0 | 0.00 | 0.23 | 0.23 | 87 | 1031.3 |
| 20260506163302 | 12 | 356 | 4.8 | 11.3 | 0.00 | 0.23 | 0.23 | 87 | 1031.6 |
| 20260506162758 | 12 | 344 | 8.0 | 12.9 | 0.00 | 0.23 | 0.23 | 87 | 1031.8 |
| 20260506162256 | 12 | 1 | 8.0 | 11.3 | 0.00 | 0.23 | 0.23 | 86 | 1031.7 |
| 20260506161753 | 12 | 20 | 8.0 | 11.3 | 0.00 | 0.23 | 0.23 | 87 | 1031.4 |
| 20260506161250 | 12 | 45 | 3.2 | 12.9 | 0.00 | 0.23 | 0.23 | 86 | 1031.5 |
| 20260506160748 | 12 | 51 | 6.4 | 8.0 | 0.00 | 0.23 | 0.23 | 87 | 1031.6 |
| 20260506160244 | 12 | 311 | 6.4 | 9.7 | 0.05 | 0.23 | 0.23 | 87 | 1031.6 |
| 20260506155743 | 12 | 37 | 6.4 | 9.7 | 0.05 | 0.23 | 0.23 | 88 | 1031.4 |
| 20260506155239 | 12 | 334 | 1.6 | 8.0 | 0.00 | 0.23 | 0.23 | 88 | 1031.2 |
| 20260506153347 | 12 | 33 | 4.8 | 14.5 | 0.00 | 0.23 | 0.23 | 88 | 1030.5 |
| 20260506152843 | 12 | 8 | 9.7 | 9.7 | 0.00 | 0.23 | 0.23 | 90 | 1030.9 |
| 20260506152341 | 12 | 45 | 8.0 | 9.7 | 0.05 | 0.23 | 0.23 | 90 | 1031.1 |
| 20260506151839 | 11 | 24 | 6.4 | 11.3 | 0.13 | 0.23 | 0.23 | 91 | 1031.2 |
| 20260506151335 | 11 | 72 | 8.0 | 9.7 | 0.13 | 0.23 | 0.23 | 90 | 1031.6 |
| 20260506150833 | 11 | 37 | 4.8 | 6.4 | 0.05 | 0.20 | 0.20 | 90 | 1032.3 |
| 20260506150329 | 11 | 8 | 6.4 | 6.4 | 0.00 | 0.20 | 0.20 | 89 | 1032.5 |
| 20260506145826 | 11 | 17 | 3.2 | 4.8 | 0.30 | 0.20 | 0.20 | 89 | 1032.7 |
| 20260506145322 | 11 | 14 | 4.8 | 12.9 | 0.66 | 0.18 | 0.18 | 88 | 1031.6 |
| 20260506144820 | 11 | 7 | 11.3 | 14.5 | 0.71 | 0.15 | 0.15 | 86 | 1032.5 |
| 20260506144317 | 11 | 359 | 1.6 | 6.4 | 0.30 | 0.05 | 0.05 | 84 | 1033.6 |
| 20260506143815 | 11 | 20 | 3.2 | 12.9 | 0.05 | 0.03 | 0.03 | 83 | 1032.9 |
| 20260506143312 | 11 | 19 | 6.4 | 8.0 | 0.00 | 0.00 | 0.00 | 83 | 1032.5 |
| 20260506142810 | 11 | 51 | 1.6 | 6.4 | 0.00 | 0.00 | 0.00 | 83 | 1032.9 |
| 20260506142307 | 11 | 357 | 3.2 | 9.7 | 0.00 | 0.00 | 0.00 | 83 | 1033.3 |
| 20260506141806 | 11 | 16 | 6.4 | 11.3 | 0.00 | 0.00 | 0.00 | 83 | 1031.1 |
| 20260506141303 | 12 | 40 | 8.0 | 16.1 | 0.05 | 0.00 | 0.00 | 83 | 1030.7 |
| 20260506140801 | 12 | 78 | 4.8 | 17.7 | 0.05 | 0.00 | 0.00 | 83 | 1031.0 |
| 20260506140258 | 12 | 59 | 6.4 | 9.7 | 0.05 | 0.00 | 0.00 | 82 | 1031.4 |
| 20260506135755 | 12 | 332 | 8.0 | 12.9 | 0.00 | 0.00 | 0.00 | 81 | 1031.3 |
| 20260506135251 | 12 | 352 | 8.0 | 17.7 | 0.00 | 0.00 | 0.00 | 80 | 1031.9 |
| 20260506134748 | 12 | 328 | 6.4 | 9.7 | 0.00 | 0.00 | 0.00 | 80 | 1031.8 |
| 20260506134244 | 12 | 42 | 8.0 | 14.5 | 0.00 | 0.00 | 0.00 | 80 | 1031.5 |
| 20260506133741 | 12 | 3 | 6.4 | 8.0 | 0.00 | 0.00 | 0.00 | 80 | 1031.3 |
| 20260506133238 | 12 | 0 | 3.2 | 12.9 | 0.00 | 0.00 | 0.00 | 80 | 1030.9 |
| 20260506132735 | 12 | 8 | 9.7 | 20.9 | 0.00 | 0.00 | 0.00 | 79 | 1031.2 |
| 20260506132232 | 12 | 54 | 6.4 | 17.7 | 0.00 | 0.00 | 0.00 | 79 | 1030.8 |
| 20260506131730 | 12 | 341 | 4.8 | 16.1 | 0.00 | 0.00 | 0.00 | 80 | 1030.6 |
| 20260506131226 | 12 | 18 | 4.8 | 14.5 | 0.00 | 0.00 | 0.00 | 79 | 1030.6 |
| 20260506130723 | 12 | 339 | 4.8 | 16.1 | 0.00 | 0.00 | 0.00 | 78 | 1030.8 |
| 20260506130220 | 12 | 335 | 4.8 | 9.7 | 0.00 | 0.00 | 0.00 | 79 | 1030.5 |
| 20260506125718 | 12 | 14 | 9.7 | 14.5 | 0.00 | 0.00 | 0.00 | 78 | 1030.2 |
| 20260506125215 | 12 | 22 | 3.2 | 12.9 | 0.00 | 0.00 | 0.00 | 77 | 1030.0 |
| 20260506124713 | 12 | 27 | 6.4 | 14.5 | 0.00 | 0.00 | 0.00 | 76 | 1030.4 |
| 20260506124211 | 12 | 38 | 4.8 | 12.9 | 0.00 | 0.00 | 0.00 | 76 | 1030.1 |
| 20260506123708 | 12 | 11 | 4.8 | 12.9 | 0.00 | 0.00 | 0.00 | 75 | 1030.0 |
| 20260506123207 | 12 | 19 | 4.8 | 11.3 | 0.00 | 0.00 | 0.00 | 74 | 1029.7 |
| 20260506122703 | 13 | 9 | 6.4 | 11.3 | 0.00 | 0.00 | 0.00 | 74 | 1030.0 |
| 20260506122201 | 13 | 20 | 12.9 | 12.9 | 0.00 | 0.00 | 0.00 | 74 | 1030.0 |
| 20260506121658 | 13 | 335 | 9.7 | 16.1 | 0.00 | 0.00 | 0.00 | 74 | 1030.1 |
| 20260506121154 | 13 | 302 | 11.3 | 11.3 | 0.00 | 0.00 | 0.00 | 74 | 1029.5 |
| 20260506120653 | 13 | 354 | 4.8 | 8.0 | 0.00 | 0.00 | 0.00 | 74 | 1029.4 |
| 20260506120150 | 13 | 336 | 6.4 | 9.7 | 0.00 | 0.00 | 0.00 | 74 | 1029.5 |
| 20260506115648 | 13 | 343 | 6.4 | 11.3 | 0.00 | 0.00 | 0.00 | 74 | 1029.4 |
| 20260506115146 | 13 | 1 | 4.8 | 14.5 | 0.00 | 0.00 | 0.00 | 74 | 1029.4 |
| 20260506114643 | 13 | 323 | 6.4 | 8.0 | 0.00 | 0.00 | 0.00 | 74 | 1029.4 |
| 20260506114141 | 13 | 14 | 3.2 | 9.7 | 0.00 | 0.00 | 0.00 | 73 | 1029.5 |
| 20260506113639 | 13 | 1 | 4.8 | 9.7 | 0.00 | 0.00 | 0.00 | 73 | 1029.3 |
| 20260506113136 | 13 | 43 | 6.4 | 11.3 | 0.00 | 0.00 | 0.00 | 73 | 1029.2 |
| 20260506112632 | 13 | 354 | 8.0 | 19.3 | 0.00 | 0.00 | 0.00 | 72 | 1029.1 |
| 20260506112130 | 13 | 12 | 4.8 | 8.0 | 0.00 | 0.00 | 0.00 | 73 | 1029.2 |
| 20260506111627 | 13 | 73 | 8.0 | 9.7 | 0.00 | 0.00 | 0.00 | 73 | 1028.8 |
| 20260506111125 | 14 | 14 | 6.4 | 12.9 | 0.00 | 0.00 | 0.00 | 73 | 1028.8 |
| 20260506110622 | 14 | 24 | 4.8 | 14.5 | 0.00 | 0.00 | 0.00 | 74 | 1028.6 |
| 20260506110119 | 14 | 354 | 4.8 | 8.0 | 0.00 | 0.00 | 0.00 | 74 | 1028.5 |
| 20260506105616 | 14 | 14 | 4.8 | 9.7 | 0.00 | 0.00 | 0.00 | 74 | 1028.7 |
| 20260506105113 | 14 | 28 | 9.7 | 11.3 | 0.00 | 0.00 | 0.00 | 74 | 1028.6 |
| 20260506104611 | 14 | 359 | 3.2 | 12.9 | 0.00 | 0.00 | 0.00 | 74 | 1028.5 |
| 20260506104108 | 14 | 349 | 4.8 | 9.7 | 0.00 | 0.00 | 0.00 | 74 | 1028.4 |
| 20260506103605 | 14 | 348 | 4.8 | 14.5 | 0.00 | 0.00 | 0.00 | 73 | 1028.3 |
| 20260506103102 | 14 | 87 | 4.8 | 16.1 | 0.00 | 0.00 | 0.00 | 74 | 1028.2 |
| 20260506102600 | 14 | 20 | 4.8 | 16.1 | 0.00 | 0.00 | 0.00 | 74 | 1028.0 |
| 20260506102057 | 14 | 10 | 9.7 | 14.5 | 0.00 | 0.00 | 0.00 | 74 | 1027.7 |
| 20260506101554 | 14 | 12 | 4.8 | 12.9 | 0.00 | 0.00 | 0.00 | 74 | 1028.0 |
| 20260506101051 | 14 | 14 | 8.0 | 12.9 | 0.00 | 0.00 | 0.00 | 74 | 1027.6 |
| 20260506100549 | 14 | 52 | 3.2 | 12.9 | 0.00 | 0.00 | 0.00 | 74 | 1027.6 |
| 20260506100047 | 14 | 19 | 8.0 | 11.3 | 0.00 | 0.00 | 0.00 | 74 | 1027.8 |
| 20260506095546 | 14 | 16 | 9.7 | 12.9 | 0.00 | 0.00 | 0.00 | 74 | 1027.6 |
| 20260506095042 | 15 | 339 | 6.4 | 11.3 | 0.00 | 0.00 | 0.00 | 75 | 1027.5 |
| 20260506094539 | 15 | 356 | 4.8 | 9.7 | 0.00 | 0.00 | 0.00 | 75 | 1027.4 |
| 20260506094037 | 15 | 52 | 3.2 | 11.3 | 0.00 | 0.00 | 0.00 | 75 | 1027.3 |
| 20260506093536 | 15 | 17 | 4.8 | 8.0 | 0.00 | 0.00 | 0.00 | 74 | 1027.5 |
| 20260506093032 | 15 | 28 | 6.4 | 11.3 | 0.00 | 0.00 | 0.00 | 75 | 1027.5 |
| 20260506092530 | 15 | 31 | 3.2 | 12.9 | 0.00 | 0.00 | 0.00 | 74 | 1027.3 |
| 20260506092027 | 15 | 340 | 3.2 | 16.1 | 0.00 | 0.00 | 0.00 | 74 | 1027.6 |
| 20260506091525 | 15 | 3 | 9.7 | 9.7 | 0.00 | 0.00 | 0.00 | 74 | 1027.3 |
| 20260506091022 | 15 | 350 | 3.2 | 9.7 | 0.00 | 0.00 | 0.00 | 74 | 1027.3 |
| 20260506090520 | 15 | 14 | 6.4 | 11.3 | 0.00 | 0.00 | 0.00 | 75 | 1027.2 |
| 20260506090016 | 15 | 38 | 6.4 | 6.4 | 0.00 | 0.00 | 0.00 | 75 | 1027.5 |
| 20260506085513 | 15 | 22 | 9.7 | 12.9 | 0.00 | 0.00 | 0.00 | 75 | 1027.2 |
| 20260506085009 | 15 | 38 | 9.7 | 9.7 | 0.00 | 0.00 | 0.00 | 75 | 1027.3 |
| 20260506084506 | 15 | 7 | 3.2 | 8.0 | 0.00 | 0.00 | 0.00 | 75 | 1027.0 |
| 20260506084002 | 15 | 42 | 8.0 | 12.9 | 0.00 | 0.00 | 0.00 | 75 | 1027.2 |
| 20260506083500 | 15 | 6 | 3.2 | 11.3 | 0.00 | 0.00 | 0.00 | 75 | 1027.1 |
| 20260506082957 | 15 | 6 | 3.2 | 8.0 | 0.00 | 0.00 | 0.00 | 75 | 1027.0 |
| 20260506082454 | 15 | 34 | 3.2 | 9.7 | 0.00 | 0.00 | 0.00 | 75 | 1027.0 |
| 20260506081949 | 15 | 30 | 3.2 | 8.0 | 0.00 | 0.00 | 0.00 | 76 | 1026.9 |
| 20260506081448 | 16 | 25 | 3.2 | 11.3 | 0.00 | 0.00 | 0.00 | 75 | 1026.7 |
| 20260506080945 | 16 | 331 | 4.8 | 9.7 | 0.00 | 0.00 | 0.00 | 76 | 1026.8 |
| 20260506080442 | 16 | 8 | 6.4 | 12.9 | 0.00 | 0.00 | 0.00 | 76 | 1026.9 |
| 20260506073426 | 16 | 29 | 4.8 | 4.8 | 0.00 | 0.00 | 0.00 | 76 | 1026.7 |
| 20260506072923 | 16 | 60 | 3.2 | 11.3 | 0.00 | 0.00 | 0.00 | 76 | 1026.6 |
| 20260506072420 | 16 | 11 | 3.2 | 9.7 | 0.00 | 0.00 | 0.00 | 76 | 1026.6 |
| 20260506071918 | 16 | 25 | 6.4 | 9.7 | 0.00 | 0.00 | 0.00 | 76 | 1026.6 |
| 20260506071416 | 16 | 0 | 4.8 | 11.3 | 0.00 | 0.00 | 0.00 | 76 | 1026.6 |
| 20260506070912 | 16 | 42 | 1.6 | 11.3 | 0.00 | 0.00 | 0.00 | 76 | 1026.4 |
| 20260506070409 | 16 | 18 | 4.8 | 11.3 | 0.00 | 0.00 | 0.00 | 76 | 1026.4 |
| 20260506062347 | 16 | 311 | 4.8 | 8.0 | 0.00 | 0.00 | 0.00 | 77 | 1026.5 |
| 20260506061842 | 16 | 354 | 11.3 | 11.3 | 0.00 | 0.00 | 0.00 | 76 | 1026.3 |
| 20260506061339 | 16 | 341 | 6.4 | 9.7 | 0.00 | 0.00 | 0.00 | 76 | 1026.4 |
| 20260506060837 | 16 | 347 | 6.4 | 9.7 | 0.00 | 0.00 | 0.00 | 76 | 1026.5 |
| 20260506060335 | 17 | 18 | 6.4 | 9.7 | 0.00 | 0.00 | 0.00 | 76 | 1026.4 |
| 20260506051307 | 17 | 345 | 3.2 | 6.4 | 0.00 | 0.00 | 0.00 | 74 | 1026.4 |
| 20260506050805 | 17 | 1 | 4.8 | 6.4 | 0.00 | 0.00 | 0.00 | 74 | 1026.5 |
| 20260506050302 | 18 | 353 | 3.2 | 9.7 | 0.00 | 0.00 | 0.00 | 73 | 1026.6 |
| 20260506044752 | 18 | 35 | 6.4 | 11.3 | 0.00 | 0.00 | 0.00 | 73 | 1026.4 |
| 20260506044250 | 18 | 334 | 6.4 | 11.3 | 0.00 | 0.00 | 0.00 | 73 | 1026.3 |
| 20260506043747 | 18 | 328 | 8.0 | 9.7 | 0.00 | 0.00 | 0.00 | 73 | 1026.4 |
| 20260506043244 | 18 | 4 | 4.8 | 11.3 | 0.00 | 0.00 | 0.00 | 73 | 1026.4 |
| 20260506042743 | 18 | 28 | 4.8 | 9.7 | 0.00 | 0.00 | 0.00 | 73 | 1026.2 |
| 20260506042241 | 19 | 304 | 8.0 | 11.3 | 0.00 | 0.00 | 0.00 | 73 | 1026.5 |
| 20260506041739 | 19 | 43 | 3.2 | 9.7 | 0.00 | 0.00 | 0.00 | 72 | 1026.2 |
| 20260506041236 | 19 | 6 | 3.2 | 9.7 | 0.00 | 0.00 | 0.00 | 72 | 1026.4 |
| 20260506040733 | 19 | 8 | 3.2 | 11.3 | 0.00 | 0.00 | 0.00 | 71 | 1026.5 |
| 20260506040230 | 20 | 54 | 6.4 | 16.1 | 0.00 | 0.00 | 0.00 | 71 | 1026.2 |
| 20260506035727 | 20 | 45 | 11.3 | 12.9 | 0.00 | 0.00 | 0.00 | 71 | 1026.3 |
| 20260506035224 | 20 | 322 | 6.4 | 9.7 | 0.00 | 0.00 | 0.00 | 70 | 1026.3 |
| 20260506034721 | 20 | 26 | 4.8 | 14.5 | 0.00 | 0.00 | 0.00 | 70 | 1025.9 |
| 20260506034218 | 20 | 354 | 3.2 | 9.7 | 0.00 | 0.00 | 0.00 | 70 | 1025.7 |
| 20260506033715 | 20 | 22 | 4.8 | 6.4 | 0.00 | 0.00 | 0.00 | 69 | 1025.6 |
| 20260506033212 | 20 | 17 | 3.2 | 9.7 | 0.00 | 0.00 | 0.00 | 69 | 1025.6 |
| 20260506032709 | 20 | 15 | 8.0 | 12.9 | 0.00 | 0.00 | 0.00 | 69 | 1025.7 |
| 20260506032206 | 20 | 10 | 6.4 | 9.7 | 0.00 | 0.00 | 0.00 | 69 | 1025.5 |
| 20260506031703 | 20 | 6 | 1.6 | 12.9 | 0.00 | 0.00 | 0.00 | 69 | 1025.3 |
| 20260506031200 | 20 | 32 | 4.8 | 9.7 | 0.00 | 0.00 | 0.00 | 69 | 1025.1 |
| 20260506030658 | 20 | 29 | 9.7 | 12.9 | 0.00 | 0.00 | 0.00 | 69 | 1024.8 |
| 20260506030155 | 20 | 343 | 4.8 | 9.7 | 0.00 | 0.00 | 0.00 | 69 | 1024.9 |
| 20260506025652 | 21 | 35 | 6.4 | 8.0 | 0.00 | 0.00 | 0.00 | 68 | 1024.8 |
| 20260506025148 | 21 | 16 | 4.8 | 9.7 | 0.00 | 0.00 | 0.00 | 68 | 1024.6 |
| 20260506024646 | 21 | 29 | 3.2 | 6.4 | 0.00 | 0.00 | 0.00 | 68 | 1024.8 |
| 20260506024142 | 21 | 324 | 4.8 | 9.7 | 0.00 | 0.00 | 0.00 | 68 | 1024.8 |
| 20260506023638 | 21 | 316 | 6.4 | 9.7 | 0.00 | 0.00 | 0.00 | 68 | 1024.6 |
| 20260506023136 | 21 | 348 | 6.4 | 8.0 | 0.00 | 0.00 | 0.00 | 67 | 1024.4 |
| 20260506022633 | 21 | 12 | 8.0 | 9.7 | 0.00 | 0.00 | 0.00 | 67 | 1024.4 |
| 20260506022130 | 21 | 32 | 6.4 | 12.9 | 0.00 | 0.00 | 0.00 | 67 | 1024.4 |
| 20260506021628 | 22 | 49 | 6.4 | 12.9 | 0.00 | 0.00 | 0.00 | 67 | 1024.2 |
| 20260506021125 | 22 | 9 | 3.2 | 9.7 | 0.00 | 0.00 | 0.00 | 67 | 1024.2 |
| 20260506020622 | 22 | 321 | 4.8 | 9.7 | 0.00 | 0.00 | 0.00 | 67 | 1024.0 |
| 20260506020119 | 22 | 41 | 6.4 | 11.3 | 0.00 | 0.00 | 0.00 | 66 | 1023.9 |
| 20260506015617 | 22 | 36 | 8.0 | 9.7 | 0.00 | 0.00 | 0.00 | 66 | 1023.9 |
| 20260506015114 | 22 | 49 | 8.0 | 8.0 | 0.00 | 0.00 | 0.00 | 65 | 1023.6 |
| 20260506014611 | 22 | 2 | 4.8 | 14.5 | 0.00 | 0.00 | 0.00 | 65 | 1023.2 |
| 20260506014106 | 23 | 346 | 6.4 | 9.7 | 0.00 | 0.00 | 0.00 | 64 | 1023.3 |
| 20260506013605 | 23 | 23 | 6.4 | 9.7 | 0.00 | 0.00 | 0.00 | 65 | 1023.2 |
| 20260506013102 | 23 | 10 | 3.2 | 17.7 | 0.00 | 0.00 | 0.00 | 65 | 1022.9 |
| 20260506012558 | 23 | 330 | 4.8 | 14.5 | 0.00 | 0.00 | 0.00 | 65 | 1022.8 |
| 20260506012054 | 23 | 34 | 4.8 | 6.4 | 0.00 | 0.00 | 0.00 | 65 | 1022.7 |
| 20260506011552 | 23 | 359 | 3.2 | 9.7 | 0.00 | 0.00 | 0.00 | 65 | 1022.3 |
| 20260506011048 | 23 | 336 | 1.6 | 8.0 | 0.00 | 0.00 | 0.00 | 64 | 1022.2 |
| 20260506010548 | 23 | 327 | 3.2 | 12.9 | 0.00 | 0.00 | 0.00 | 64 | 1022.5 |
| 20260506010044 | 23 | 343 | 3.2 | 6.4 | 0.00 | 0.00 | 0.00 | 64 | 1022.4 |
| 20260506005541 | 23 | 3 | 3.2 | 8.0 | 0.00 | 0.00 | 0.00 | 63 | 1022.3 |
| 20260506005037 | 24 | 77 | 4.8 | 9.7 | 0.00 | 0.00 | 0.00 | 63 | 1022.4 |
| 20260506004535 | 24 | 14 | 3.2 | 6.4 | 0.00 | 0.00 | 0.00 | 62 | 1022.4 |
| 20260506004031 | 24 | 27 | 6.4 | 9.7 | 0.00 | 0.00 | 0.00 | 62 | 1022.3 |
| 20260506003528 | 25 | 1 | 3.2 | 8.0 | 0.00 | 0.00 | 0.00 | 61 | 1022.1 |
| 20260506003024 | 25 | 19 | 4.8 | 8.0 | 0.00 | 0.00 | 0.00 | 61 | 1021.9 |
| 20260506002520 | 25 | 351 | 4.8 | 8.0 | 0.00 | 0.00 | 0.00 | 60 | 1021.9 |
| 20260506002016 | 25 | 330 | 8.0 | 8.0 | 0.00 | 0.00 | 0.00 | 59 | 1022.0 |
| 20260506001512 | 25 | 356 | 4.8 | 9.7 | 0.00 | 0.00 | 0.00 | 59 | 1021.9 |
| 20260506001010 | 25 | 33 | 9.7 | 12.9 | 0.00 | 0.00 | 0.00 | 58 | 1021.9 |
| 20260506000507 | 25 | 26 | 3.2 | 9.7 | 0.00 | 0.00 | 0.00 | 58 | 1022.0 |
| 20260506000004 | 26 | 26 | 4.8 | 11.3 | 0.00 | 0.00 | 0.00 | 57 | 1022.0 |
| 20260505235502 | 26 | 25 | 3.2 | 12.9 | 0.00 | 0.00 | 0.00 | 57 | 1022.0 |
| 20260505234958 | 26 | 24 | 9.7 | 9.7 | 0.00 | 0.00 | 0.00 | 58 | 1021.6 |
| 20260505234456 | 26 | 49 | 3.2 | 9.7 | 0.00 | 0.00 | 0.00 | 56 | 1021.5 |
| 20260505233952 | 26 | 10 | 11.3 | 14.5 | 0.00 | 0.00 | 0.00 | 56 | 1021.6 |
| 20260505233450 | 27 | 21 | 3.2 | 9.7 | 0.00 | 0.00 | 0.00 | 58 | 1021.3 |
| 20260505232947 | 27 | 5 | 3.2 | 8.0 | 0.00 | 0.00 | 0.00 | 57 | 1021.3 |
| 20260505232445 | 27 | 17 | 6.4 | 9.7 | 0.00 | 0.00 | 0.00 | 56 | 1021.3 |
| 20260505231942 | 27 | 29 | 12.9 | 17.7 | 0.00 | 0.00 | 0.00 | 56 | 1021.2 |
| 20260505231439 | 28 | 65 | 3.2 | 11.3 | 0.00 | 0.00 | 0.00 | 57 | 1021.0 |
| 20260505230937 | 28 | 3 | 3.2 | 12.9 | 0.00 | 0.00 | 0.00 | 56 | 1020.9 |
| 20260505230435 | 29 | 9 | 3.2 | 11.3 | 0.00 | 0.00 | 0.00 | 55 | 1021.0 |
| 20260505225931 | 30 | 336 | 3.2 | 9.7 | 0.00 | 0.00 | 0.00 | 52 | 1020.7 |
| 20260505225428 | 30 | 358 | 3.2 | 9.7 | 0.00 | 0.00 | 0.00 | 49 | 1020.8 |
| 20260505224924 | 30 | 19 | 3.2 | 6.4 | 0.00 | 0.00 | 0.00 | 46 | 1020.8 |
| 20260505224421 | 31 | 353 | 3.2 | 6.4 | 0.00 | 0.00 | 0.00 | 45 | 1020.6 |
| 20260505223918 | 31 | 340 | 4.8 | 9.7 | 0.00 | 0.00 | 0.00 | 45 | 1020.5 |
| 20260505223415 | 31 | 1 | 6.4 | 9.7 | 0.00 | 0.00 | 0.00 | 46 | 1020.6 |
| 20260505222911 | 32 | 43 | 1.6 | 8.0 | 0.00 | 0.00 | 0.00 | 45 | 1020.5 |
| 20260505222408 | 32 | 27 | 8.0 | 9.7 | 0.00 | 0.00 | 0.00 | 43 | 1020.5 |
| 20260505221904 | 33 | 2 | 3.2 | 4.8 | 0.00 | 0.00 | 0.00 | 43 | 1020.3 |
| 20260505221401 | 33 | 0 | 3.2 | 6.4 | 0.00 | 0.00 | 0.00 | 44 | 1020.4 |
| 20260505220858 | 33 | 26 | 3.2 | 4.8 | 0.00 | 0.00 | 0.00 | 44 | 1020.2 |
| 20260505220355 | 33 | 356 | 3.2 | 6.4 | 0.00 | 0.00 | 0.00 | 43 | 1020.2 |
| 20260505215853 | 33 | 356 | 3.2 | 4.8 | 0.00 | 0.00 | 0.00 | 44 | 1020.1 |
| 20260505215351 | 33 | 12 | 3.2 | 4.8 | 0.00 | 0.00 | 0.00 | 44 | 1020.3 |
| 20260505214849 | 33 | 20 | 1.6 | 4.8 | 0.00 | 0.00 | 0.00 | 43 | 1020.2 |
| 20260505214346 | 33 | 330 | 3.2 | 4.8 | 0.00 | 0.00 | 0.00 | 41 | 1020.1 |
| 20260505213843 | 33 | 6 | 3.2 | 4.8 | 0.00 | 0.00 | 0.00 | 43 | 1020.2 |
| 20260505213341 | 33 | 334 | 3.2 | 6.4 | 0.00 | 0.00 | 0.00 | 41 | 1020.3 |
| 20260505212837 | 34 | 318 | 4.8 | 4.8 | 0.00 | 0.00 | 0.00 | 42 | 1020.3 |
| 20260505212334 | 33 | 338 | 3.2 | 8.0 | 0.00 | 0.00 | 0.00 | 41 | 1020.4 |
| 20260505211830 | 34 | 5 | 4.8 | 8.0 | 0.00 | 0.00 | 0.00 | 40 | 1020.3 |
| 20260505211328 | 34 | 310 | 4.8 | 4.8 | 0.00 | 0.00 | 0.00 | 44 | 1020.4 |
| 20260505210824 | 34 | 139 | 0.0 | 3.2 | 0.00 | 0.00 | 0.00 | 46 | 1020.4 |
| 20260505210321 | 34 | 50 | 1.6 | 3.2 | 0.00 | 0.00 | 0.00 | 47 | 1020.7 |
| 20260505205818 | 34 | 19 | 1.6 | 3.2 | 0.00 | 0.00 | 0.00 | 42 | 1020.6 |
| 20260505205316 | 34 | 23 | 1.6 | 6.4 | 0.00 | 0.00 | 0.00 | 46 | 1020.9 |
| 20260505204812 | 34 | 23 | 1.6 | 3.2 | 0.00 | 0.00 | 0.00 | 46 | 1020.9 |
| 20260505204311 | 34 | 50 | 3.2 | 3.2 | 0.00 | 0.00 | 0.00 | 45 | 1020.9 |
| 20260505203808 | 35 | 317 | 4.8 | 6.4 | 0.00 | 0.00 | 0.00 | 43 | 1021.0 |
| 20260505203304 | 34 | 16 | 3.2 | 3.2 | 0.00 | 0.00 | 0.00 | 44 | 1020.7 |
| 20260505202800 | 34 | 117 | 1.6 | 4.8 | 0.00 | 0.00 | 0.00 | 44 | 1020.9 |
| 20260505202256 | 33 | 61 | 1.6 | 4.8 | 0.00 | 0.00 | 0.00 | 47 | 1021.0 |
| 20260505201753 | 33 | 9 | 3.2 | 4.8 | 0.00 | 0.00 | 0.00 | 49 | 1021.0 |
| 20260505201251 | 33 | 14 | 4.8 | 4.8 | 0.00 | 0.00 | 0.00 | 48 | 1021.2 |
| 20260505200749 | 33 | 126 | 0.0 | 4.8 | 0.00 | 0.00 | 0.00 | 48 | 1021.2 |
| 20260505200246 | 33 | 128 | 0.0 | 9.7 | 0.00 | 0.00 | 0.00 | 47 | 1021.2 |
| 20260505195741 | 33 | 29 | 0.0 | 8.0 | 0.00 | 0.00 | 0.00 | 46 | 1021.2 |
| 20260505195239 | 33 | 28 | 0.0 | 8.0 | 0.00 | 0.00 | 0.00 | 47 | 1021.3 |
| 20260505194736 | 33 | 345 | 4.8 | 4.8 | 0.00 | 0.00 | 0.00 | 47 | 1021.4 |
| 20260505194232 | 33 | 1 | 3.2 | 6.4 | 0.00 | 0.00 | 0.00 | 49 | 1021.6 |
| 20260505193728 | 33 | 0 | 1.6 | 6.4 | 0.00 | 0.00 | 0.00 | 50 | 1021.5 |
| 20260505193226 | 32 | 49 | 3.2 | 4.8 | 0.00 | 0.00 | 0.00 | 54 | 1021.4 |
| 20260505192724 | 32 | 145 | 0.0 | 4.8 | 0.00 | 0.00 | 0.00 | 53 | 1021.7 |
| 20260505192221 | 32 | 145 | 0.0 | 4.8 | 0.00 | 0.00 | 0.00 | 55 | 1021.5 |
| 20260505191719 | 32 | 33 | 0.0 | 3.2 | 0.00 | 0.00 | 0.00 | 56 | 1021.6 |
| 20260505191218 | 32 | 273 | 3.2 | 4.8 | 0.00 | 0.00 | 0.00 | 57 | 1021.6 |
| 20260505190714 | 32 | 66 | 0.0 | 6.4 | 0.00 | 0.00 | 0.00 | 55 | 1021.3 |
| 20260505190213 | 32 | 185 | 3.2 | 6.4 | 0.00 | 0.00 | 0.00 | 55 | 1021.2 |
| 20260505185710 | 31 | 287 | 3.2 | 6.4 | 0.00 | 0.00 | 0.00 | 55 | 1021.4 |
| 20260505185207 | 31 | 121 | 3.2 | 8.0 | 0.00 | 0.00 | 0.00 | 57 | 1021.6 |
| 20260505184703 | 31 | 21 | 1.6 | 3.2 | 0.00 | 0.00 | 0.00 | 63 | 1021.4 |
| 20260505184200 | 31 | 142 | 3.2 | 4.8 | 0.00 | 0.00 | 0.00 | 58 | 1021.7 |
| 20260505183657 | 31 | 57 | 3.2 | 6.4 | 0.00 | 0.00 | 0.00 | 59 | 1021.7 |
| 20260505183155 | 31 | 53 | 3.2 | 4.8 | 0.00 | 0.00 | 0.00 | 61 | 1021.7 |
| 20260505182650 | 31 | 12 | 3.2 | 8.0 | 0.00 | 0.00 | 0.00 | 61 | 1021.8 |
| 20260505182148 | 31 | 352 | 3.2 | 6.4 | 0.00 | 0.00 | 0.00 | 60 | 1021.8 |
| 20260505181644 | 31 | 57 | 3.2 | 6.4 | 0.00 | 0.00 | 0.00 | 62 | 1022.0 |
| 20260505181142 | 30 | 353 | 3.2 | 8.0 | 0.00 | 0.00 | 0.00 | 61 | 1021.8 |
| 20260505180638 | 30 | 349 | 1.6 | 8.0 | 0.00 | 0.00 | 0.00 | 63 | 1021.9 |